This is the latest recevied weather packets stored in our database for station/object IK1PCD-11. If no packets are shown the sender has not sent any weather packets the latest 10 day(s).
| Time | Temp. | Humidity | Pressure | Rain* | Wind** | Luminosity | Snow |
|---|---|---|---|---|---|---|---|
| 1787703950 | 13.89° C | 100% | 1019.6 hPa | - | - | - | - |
| 1787703049 | 13.89° C | 100% | 1019.7 hPa | - | - | - | - |
| 1787702149 | 13.89° C | 100% | 1019.7 hPa | - | - | - | - |
| 1787700349 | 13.89° C | 100% | 1019.6 hPa | - | - | - | - |
| 1787699449 | 14.44° C | 100% | 1019.6 hPa | - | - | - | - |
| 1787698549 | 14.44° C | 100% | 1019.6 hPa | - | - | - | - |
| 1787697648 | 13.89° C | 100% | 1019.6 hPa | - | - | - | - |
| 1787696748 | 13.89° C | 100% | 1019.6 hPa | - | - | - | - |
| 1787695848 | 13.33° C | 100% | 1019.6 hPa | - | - | - | - |
| 1787694948 | 13.33° C | 100% | 1019.4 hPa | - | - | - | - |
| 1787694053 | 12.78° C | 100% | 1019.2 hPa | - | - | - | - |
| 1787693153 | 12.78° C | 100% | 1019.3 hPa | - | - | - | - |
| 1787692252 | 12.78° C | 100% | 1019.2 hPa | - | - | - | - |
| 1787691352 | 12.78° C | 100% | 1018.9 hPa | - | - | - | - |
| 1787688652 | 13.33° C | 100% | 1018.5 hPa | - | - | - | - |
| 1787687752 | 13.33° C | 100% | 1018.3 hPa | - | - | - | - |
| 1787686852 | 13.89° C | 100% | 1018.4 hPa | - | - | - | - |
| 1787685952 | 14.44° C | 100% | 1018.1 hPa | - | - | - | - |
| 1787685052 | 15° C | 100% | 1018.1 hPa | - | - | - | - |
| 1787684151 | 15.56° C | 100% | 1017.8 hPa | - | - | - | - |
| 1787683251 | 16.11° C | 100% | 1017.8 hPa | - | - | - | - |
| 1787682351 | 16.67° C | 100% | 1017.9 hPa | - | - | - | - |
| 1787681451 | 17.22° C | 100% | 1017.8 hPa | - | - | - | - |
| 1787680551 | 17.78° C | 100% | 1017.6 hPa | - | - | - | - |
| 1787679651 | 18.33° C | 100% | 1017.5 hPa | - | - | - | - |
* Rain since midnight (hover to see other rain measurements)
** Current wind speed in m/s (hover to see current wind gust speed)